Showing default

COSMOS 1914, 18793

Orbit data source: Space-Track

COSMOS 1914, 18793 is a payload satellite owned by UNKS (CIS) in LEO that was launched on Fri, 15 Jan 1988 UTC via a TSIKLON-3 launch vehicle from the Plesetsk Missile And Space Complex (PKMTR). Payload-class satellites include a variety of spacecraft equipped with specific instruments for various scientific and technological missions. These include communications satellites like Starlink; space stations such as the ISS; scientific satellites like the Hubble; Earth observation satellites from companies like Planet Labs, Umbra, and HawkEye 360; GPS; miniature CubeSats for education and research; and military/defense satellites.

Loading next visibility...
Identifier
18793, 1988-002F
Orbit
LEO
Country
Flag of CISCIS
Related business
Manufacturer
NPO PM
Mission
Defense Communications
Bus & Motor
STRELA-3, Unknown motor
Mass
225 kg wet, 225 kg dry
Launch date (UTC)
1988-01-15 (38 years ago)
Launch vehicle
TSIKLON-3
Launch site
Plesetsk Missile And Space Complex (PKMTR)
Object type
Payload
Rocket body
Debris
Shape & HBR
Cyl, 0.8 m
Radar Cross Section
1.257 m², Large (>1 m²)

Expand to show TLE details & history
Last TLE update: 19 hours ago

TLE from 19 hours ago
0 COSMOS 1914
1 18793U 88002F   25259.89395021  .00000030  00000-0  10193-3 0  9996
2 18793  82.6097  27.8774 0016246 275.2490 202.7928 12.66451974741192
Epoch: 2025-09-16T21:27Z
TLE epoch observation values (Epoch: 2025-09-16T21:27:17.298Z)
Latitude
61.2334°
Longitude
-123.61949°
Altitude
1,418.501 km
Speed
7.152 km/s
True Right ascension
12h 57m 07s
True Declination
61° 06' 01"
Sunlit
Object was in daylight at epoch
Visualization orbit readout
Latitude
Unknown
Longitude
Unknown
Altitude
Unknown
Speed
Unknown
Apparent Right ascension
Unknown
Apparent Declination
Unknown
Sunlit
N/A
Visualization observer readout
Local Sidereal Time
09:42:18
Azimuth
Unknown
Elevation
Unknown
Doppler factor
Unknown
Orbital elements
Apogee altitude
1,406.366 km
Perigee altitude
1,381.114 km
Semi-major axis
7,771.877 km
Eccentricity
0.00162
Inclination
82.6097°
RAAN
27.8774°
Arg. of periapsis
275.249°
True anomaly
202.72081°
Mean anomaly
202.7928°
Eccentric anomaly
202.75679°
Mean motion
3.16777 °/min
Orbital period
113.64 mins
BSTAR
0.00010193
Loading maneuver chart data...
Computing Atmospheric mass density...
Loading historical data...
Loading historical data...
Loading historical data...
Loading historical data...
Loading historical data...
Loading historical data...
Loading historical data...

Documentation

Showing up to 5 results
|